Muskogee, OK

6:30 AM CDT on July 26, 2017 (GMT -0500)
Davis

Weather History for KMKO - August, 2014

Change the Weather History Date:

Saturday, August 23, 2014

  Actual Average Record
Temperature  
Mean Temperature 84 °F -  
Max Temperature 96 °F 90 °F 102 °F (1999)
Min Temperature 72 °F 67 °F 62 °F (2012)
Cooling Degree Days 19    
Growing Degree Days 34 (Base 50)    
Moisture  
Dew Point 69 °F    
Average Humidity 63    
Maximum Humidity 93    
Minimum Humidity 38    
Precipitation  
Precipitation 0.00 in - - ()
Sea Level Pressure  
Sea Level Pressure 29.93 in    
Wind  
Wind Speed 8 mph (South)    
Max Wind Speed 14 mph    
Max Gust Speed 20 mph    
Visibility 10 miles    
Events      
Averages and records for this station are not official NWS values.
T = Trace of Precipitation, MM = Missing Value Source: NWS Daily Summary

Daily Weather History Graph

Daily Weather History Graph

Search for Another Location

Airport or City:

Trip Planner

Search our weather history database for the weather conditions in past years. The results will help you decide how hot, cold, wet, or windy it might be!

Date:

Astronomy

Aug. 23, 2014 Rise Set
Actual Time 6:46 AM CDT 8:00 PM CDT
Civil Twilight 6:20 AM CDT 8:27 PM CDT
Nautical Twilight 5:48 AM CDT 8:58 PM CDT
Astronomical Twilight 5:15 AM CDT 9:31 PM CDT
Moon 5:05 AM CDT (8/23) 6:45 PM CDT (8/23)
Length of Visible Light 14h 07m
Length of Day
13h 14m
Waning Crescent, 3% of the Moon is Illuminated
Aug 23
Waning Crescent
Aug 25
New
Sep 2
First Quarter
Sep 8
Full
Sep 15
Last Quarter

Hourly Weather History & Observations

Time (CDT) Temp. Heat Index Dew Point Humidity Pressure Visibility Wind Dir Wind Speed Gust Speed Precip Events Conditions
12:53 AM 73.9 °F - 70.0 °F 87% 29.95 in 10.0 mi South 5.8 mph - N/A   Clear
1:53 AM 75.0 °F - 70.0 °F 84% 29.94 in 10.0 mi SSE 6.9 mph - N/A   Clear
2:53 AM 73.9 °F - 70.0 °F 87% 29.95 in 10.0 mi South 6.9 mph - N/A   Clear
4:53 AM 72.0 °F - 70.0 °F 93% 29.95 in 10.0 mi South 5.8 mph - N/A   Clear
7:53 AM 75.9 °F - 71.1 °F 85% 29.96 in 10.0 mi SSE 6.9 mph - N/A   Clear
8:53 AM 81.0 °F 85.8 °F 73.0 °F 77% 29.97 in 10.0 mi South 8.1 mph - N/A   Clear
9:53 AM 86.0 °F 90.7 °F 70.0 °F 59% 29.97 in 10.0 mi SSW 12.7 mph - N/A   Clear
10:53 AM 89.1 °F 93.7 °F 69.1 °F 52% 29.99 in 10.0 mi WSW 12.7 mph - N/A   Clear
11:53 AM 90.0 °F 96.4 °F 71.1 °F 54% 29.98 in 10.0 mi SSW 9.2 mph - N/A   Clear
12:53 PM 93.0 °F 100.1 °F 71.1 °F 49% 29.96 in 10.0 mi SSW 10.4 mph 19.6 mph N/A   Clear
1:53 PM 93.9 °F 100.3 °F 70.0 °F 46% 29.95 in 10.0 mi SW 13.8 mph - N/A   Clear
2:53 PM 96.1 °F 102.9 °F 70.0 °F 43% 29.93 in 10.0 mi South 8.1 mph - N/A   Clear
4:53 PM 96.1 °F 99.9 °F 66.9 °F 38% 29.88 in 10.0 mi South 11.5 mph - N/A   Clear
5:53 PM 95.0 °F 99.5 °F 68.0 °F 41% 29.86 in 10.0 mi South 10.4 mph - N/A   Clear
6:53 PM 91.0 °F 94.3 °F 66.9 °F 45% 29.86 in 10.0 mi South 9.2 mph - N/A   Clear
7:53 PM 84.0 °F 86.3 °F 66.0 °F 55% 29.86 in 10.0 mi South 6.9 mph - N/A   Clear
8:53 PM 82.0 °F 84.1 °F 66.0 °F 58% 29.88 in 10.0 mi South 5.8 mph - N/A   Clear
9:53 PM 80.1 °F 82.1 °F 66.0 °F 62% 29.90 in 10.0 mi South 5.8 mph - N/A   Clear
10:53 PM 75.9 °F - 68.0 °F 76% 29.90 in 10.0 mi SSE 5.8 mph - N/A   Clear
11:53 PM 75.0 °F - 68.0 °F 79% 29.91 in 10.0 mi SSE 5.8 mph - N/A   Clear